Torna al catalogo

STARLINK-6059

AttivoComunicazioniVLEO
NORAD 56814·PAYLOAD·🇺🇸 United States

Lanciato May 31, 2023 da Vandenberg Space Force Base

Loading…

Prossimi Passaggi (prossime 24 ore)

TLE

AggiornatoSource: CelesTrak SupGP

Epoca: Sep 15, 2026, 02:45 UTC

1 56814C 23078AZ  26258.11506944 -.00038636  00000+0 -32379-2 0  2588
2 56814  70.0012 226.7171 0003383 270.7081 226.6250 14.98349604    16

Traccia STARLINK-6059 in tempo reale con AllMySat

Download on the App Store